NOAA 16 DEB, 41415

Orbit data source: Space-Track

NOAA 16 DEB, 41415 is space debris in SSO originally from a launch on Thu, 21 Sep 2000 UTC launched from the Air Force Western Test Range (AFWTR). Debris objects in space refer to the collection of defunct objects orbiting the Earth. Examples of debris include non-operational satellites, rocket bodies, and fragments generated from explosions, collisions, or faulty payload assembly.

Loading next visibility...
Identifier
41415, 2000-055KU
Orbit
SSO
Country
Flag of USUS
Related business
Manufacturer
Unknown
Mission
Spacecraft
Bus & Motor
Unknown
Mass
Unknown
Launch date (UTC)
2000-09-21 (25 years ago)
Launch vehicle
Unknown
Launch site
Air Force Western Test Range (AFWTR)
Object type
Payload
Rocket body
Debris
Shape & HBR
Unknown shape, 0.1 m
Radar Cross Section
Small (<0.1 m²)

Expand to show TLE details & history
Last TLE update: 13 hours ago

TLE from 13 hours ago
0 NOAA 16 DEB
1 41415U 00055KU  25293.02415831  .00010494  00000-0  38857-2 0  9991
2 41415  98.7308  22.7240 0007363 174.6521 185.4742 14.32457859499465
Epoch: 2025-10-20T00:34Z
TLE epoch observation values (Epoch: 2025-10-20T00:34:47.277Z)
Latitude
-0.00007°
Longitude
-14.70539°
Altitude
791.708 km
Speed
7.455 km/s
True Right ascension
01h 30m 53s
True Declination
0° 00' 00"
Sunlit
Object was in full shadow at epoch
Visualization orbit readout
Latitude
Unknown
Longitude
Unknown
Altitude
Unknown
Speed
Unknown
Apparent Right ascension
Unknown
Apparent Declination
Unknown
Sunlit
N/A
Visualization observer readout
Local Sidereal Time
08:31:21
Azimuth
Unknown
Elevation
Unknown
Doppler factor
Unknown
Orbital elements
Apogee altitude
785.941 km
Perigee altitude
775.399 km
Semi-major axis
7,158.807 km
Eccentricity
0.00074
Inclination
98.7308°
RAAN
22.724°
Arg. of periapsis
174.6521°
True anomaly
185.46616°
Mean anomaly
185.4742°
Eccentric anomaly
185.47018°
Mean motion
3.58329 °/min
Orbital period
100.47 mins
BSTAR
0.0038857
Loading maneuver chart data...
Computing Atmospheric mass density...
Loading historical data...
Loading historical data...
Loading historical data...
Loading historical data...
Loading historical data...
Loading historical data...
Loading historical data...

Documentation

Showing up to 5 results
|